Weather Roundup
Issued by NWS Chicago, IL

Home | Current Version | Previous Version | Graphics & Text | Print | Product List | Glossary On
Versions: 1 2 3 4 5 6 7 8 9 10 11 12 13 14 15 16 17 18 19 20 21 22 23 24 25 26 27 28 29 30 31 32 33 34 35 36 37 38 39 40 41 42 43 44 45 46 47 48 49 50
000
NZUS59 KLOT 230910
HRRLOT

CHICAGO AREA WEATHER ROUNDUP
NATIONAL WEATHER SERVICE CHICAGO/ROMEOVILLE IL
400 AM CDT WED JUL 23 2014

NOTE: "FAIR" INDICATES FEW OR NO CLOUDS BELOW 12,000 FEET WITH NO
SIGNIFICANT WEATHER AND/OR OBSTRUCTIONS TO VISIBILITY.

* THESE STATIONS ARE NOT UNDER NWS QUALITY CONTROL. THEY ALSO MAY NOT
  REPORT WEATHER SUCH AS PRECIPITATION OR FOG.

ILZ005-006-012>014-019>023-231000-
NORTHEAST ILLINOIS

CITY           SKY/WX    TMP DP  RH WIND       PRES   REMARKS
OHARE          PTCLDY    66  53  63 N16G28    30.06F
MIDWAY         CLOUDY    68  59  73 N16G28    30.05S
AURORA         PTCLDY    66  58  75 NE14      30.07R
LANSING*       CLOUDY    66  59  78 N12G18    30.04S
JOLIET*        MOCLDY    66  57  73 N13G20    30.06R
WAUKEGAN       CLEAR     63  55  75 N15G24    30.06F
DUPAGE AIRPORT PTCLDY    64  57  78 NE13      30.06F
WHEELING       PTCLDY    66  55  67 N14G22    30.08F
KANKAKEE*      CLOUDY    68  66  92 NE6       30.04R
MORRIS*        PTCLDY    68  63  82 NE3       30.05R
LEWIS AIRPORT* MOCLDY    65  57  75 NE18      30.05R
NORTHERLY IS     N/A     65  57  75 N14         N/A
$$

WIZ051-052-058>065-066-070>072-231000-
SOUTHEAST WISCONSIN

CITY           SKY/WX    TMP DP  RH WIND       PRES   REMARKS
MILWAUKEE      PTCLDY    61  56  83 N12       30.11R
KENOSHA*       CLEAR     62  57  83 N6        30.10R
RACINE*        CLEAR     61  56  83 N12       30.11S
BURLINGTON     CLEAR     59  55  88 NE6       30.12R
WAUKESHA       CLEAR     59  54  82 N3        30.13S
WEST BEND      CLEAR     61  54  77 N5        30.12R
$$

INZ001>003-010>013-019-020-231000-
NORTHWEST INDIANA

CITY           SKY/WX    TMP DP  RH WIND       PRES   REMARKS
GARY*          CLOUDY    68  61  78 N16       30.05R
MICHIGAN CITY* NOT AVBL
RENSSELAER*    NOT AVBL
VALPARAISO     CLOUDY    68  66  93 N9        30.02R
$$

LMZ740>746-231000-
SOUTHERN LAKE MICHIGAN

STATION/POSITION TIME  SKY/WX   TEMP WIND        PRES    VSBY
                                AIR  DIR/SP/G
                 (UTC)          (F)  (DEG/KT/KT) (MB)    (MI)
HARRISON CRIB    0900            66  350/ 26/ 31   N/A
BURNHAM HARBOR   0900            64  350/ 12/ 23   N/A
CALUMET HARBOR   0900            66  340/ 12/ 18 1016.2R
BURNS HARBOR     0900            69   10/ 19/ 23 1016.9R
MICHIGAN CITY    0900            68  350/ 20/ 24   N/A
$$

ABBREVIATIONS USED IN REMARKS
   TC - TEMPERATURE IN CELSIUS
  WCI - WIND CHILL INDEX
   HX - HEAT INDEX
  VSB - VISIBILITY
$$


USA.gov is the U.S. government's official web portal to all federal, state and local government web resources and services.